DELTA 1 DEB, 2224

Orbit data source: Space-Track

DELTA 1 DEB, 2224 is space debris in SSO originally from a launch on Mon, 28 Feb 1966 UTC launched from the Air Force Eastern Test Range (AFETR). Debris objects in space refer to the collection of defunct objects orbiting the Earth. Examples of debris include non-operational satellites, rocket bodies, and fragments generated from explosions, collisions, or faulty payload assembly.

Loading next visibility...
Identifier
2224, 1966-016D
Orbit
SSO
Last TLE update
5 days ago
Origin
Manufacturer
Unknown
Mission
Spacecraft
Bus & Motor
Unknown
Mass
1 kg wet, 1 kg dry
Launch date (UTC)
1966-02-28 (59 years ago)
Launch vehicle
Unknown
Launch site
Air Force Eastern Test Range (AFETR)
Object type
Payload
Rocket body
Debris
Shape & HBR
Cyl + 1 Cable, 3.5 m
Radar Cross Section
3.500 m², Small (<0.1 m²)

Expand to show TLE details & history

TLE from 5 days ago
0 DELTA 1 DEB
1 02224U 66016D   25187.73619021 -.00000027  00000-0  85455-4 0  9992
2 02224 101.1318 123.7939 0137492 186.0938 240.8786 12.52158735702667
Epoch: 2025-07-06T17:40Z
TLE epoch observation values (Epoch: 2025-07-06T17:40:06.834Z)
Latitude
63.41544°
Longitude
-89.22474°
Altitude
1,519.777 km
Speed
7.087 km/s
True Right ascension
06h 43m 02s
True Declination
63° 17' 27"
Sunlit
Object was in daylight at epoch
Visualization orbit readout
Latitude
71.61959°
Longitude
-97.88163°
Altitude
1,487.923 km
Speed
7.117 km/s
Apparent Right ascension
09h 35m 18s
Apparent Declination
29° 11' 53"
Sunlit
Object is in daylight
Visualization observer readout
Local Sidereal Time
23:09:14
Azimuth
21.393° NNE
Elevation
-17.521°
Doppler factor
1
Orbital elements
Apogee altitude
1,560.658 km
Perigee altitude
1,345.315 km
Semi-major axis
7,831.123 km
Eccentricity
0.01375
Inclination
101.1318°
RAAN
123.7939°
Arg. of periapsis
186.0938°
True anomaly
Unknown
Mean anomaly
240.8786°
Eccentric anomaly
Unknown
Mean motion
3.13189 °/min
Orbital period
114.95 mins
BSTAR
0.000085455
Loading maneuver chart data...
Loading SW <> Apogee altitude chart data...
Loading historical data...
Loading historical data...
Loading historical data...
Loading historical data...
Loading historical data...
Loading historical data...
Loading historical data...
Other satellites on launch #16 in the year 1966 (1966-02-28 UTC)

DELTA 1 DEB Visibility forecast

Observer location: undefined°, undefined°

Span
Click to sort rows by Start time (UTC) header in descending order
Start Az.
Max El. time (UTC)
Max El. Az.
Max El.
End time (UTC)
End Az.
6 mins2025-07-11 11:04:17.452Z336.88° NNW2025-07-11 11:07:17.452Z313.716° NW13.737°2025-07-11 11:10:17.452Z289.894° WNW
13 mins2025-07-11 18:16:17.452Z114.617° SE2025-07-11 18:22:17.452Z59.577° ENE30.185°2025-07-11 18:29:17.452Z0.473° NNE
15 mins2025-07-11 20:07:17.452Z182.936° SSW2025-07-11 20:15:17.452Z269.652° W39.573°2025-07-11 20:22:17.452Z333.161° NNW
13 mins2025-07-12 08:11:17.452Z28.278° NE2025-07-12 08:17:17.452Z92.262° ESE39.55°2025-07-12 08:24:17.452Z177.186° S
11 mins2025-07-12 10:05:17.452Z350.334° N2025-07-12 10:10:17.452Z300.082° NW27.681°2025-07-12 10:16:17.452Z245.279° WSW
|